Year,Month,Day,Hour,Minute,Value (Times are PST for temperature in C)
2015,06,09,00,00,17.80
2015,06,09,00,01,17.80
2015,06,09,00,02,17.80
2015,06,09,00,03,17.80
2015,06,09,00,04,17.80
2015,06,09,00,05,17.80
2015,06,09,00,06,17.70
2015,06,09,00,07,17.70
2015,06,09,00,08,17.70
2015,06,09,00,09,17.70
2015,06,09,00,10,17.60
2015,06,09,00,11,17.60
2015,06,09,00,12,17.60
2015,06,09,00,13,17.50
2015,06,09,00,14,17.50
2015,06,09,00,15,17.50
2015,06,09,00,16,17.40
2015,06,09,00,17,17.40
2015,06,09,00,18,17.40
2015,06,09,00,19,17.30
2015,06,09,00,20,17.30
2015,06,09,00,21,17.30
2015,06,09,00,22,17.30
2015,06,09,00,23,17.30
2015,06,09,00,24,17.30
2015,06,09,00,25,17.30
2015,06,09,00,26,17.30
2015,06,09,00,27,17.30
2015,06,09,00,28,17.30
2015,06,09,00,29,17.30
2015,06,09,00,30,17.30
2015,06,09,00,31,17.20
2015,06,09,00,32,17.20
2015,06,09,00,33,17.20
2015,06,09,00,34,17.20
2015,06,09,00,35,17.10
2015,06,09,00,36,17.10
2015,06,09,00,37,17.10
2015,06,09,00,38,17.10
2015,06,09,00,39,17.00
2015,06,09,00,40,17.00
2015,06,09,00,41,17.00
2015,06,09,00,42,17.00
2015,06,09,00,43,17.00
2015,06,09,00,44,16.90
2015,06,09,00,45,16.90
2015,06,09,00,46,16.90
2015,06,09,00,47,16.90
2015,06,09,00,48,16.90
2015,06,09,00,49,16.90
2015,06,09,00,50,16.90
2015,06,09,00,51,16.90
2015,06,09,00,52,16.80
2015,06,09,00,53,16.80
2015,06,09,00,54,16.80
2015,06,09,00,55,16.80
2015,06,09,00,56,16.70
2015,06,09,00,57,16.70
2015,06,09,00,58,16.70
2015,06,09,00,59,16.70
2015,06,09,01,00,16.70
2015,06,09,01,01,16.70
2015,06,09,01,02,16.70
2015,06,09,01,03,16.70
2015,06,09,01,04,16.70
2015,06,09,01,05,16.70
2015,06,09,01,06,16.60
2015,06,09,01,07,16.60
2015,06,09,01,08,16.50
2015,06,09,01,09,16.40
2015,06,09,01,10,16.40
2015,06,09,01,11,16.40
2015,06,09,01,12,16.40
2015,06,09,01,13,16.30
2015,06,09,01,14,16.30
2015,06,09,01,15,16.30
2015,06,09,01,16,16.30
2015,06,09,01,17,16.30
2015,06,09,01,18,16.20
2015,06,09,01,19,16.20
2015,06,09,01,20,16.20
2015,06,09,01,21,16.20
2015,06,09,01,22,16.10
2015,06,09,01,23,16.10
2015,06,09,01,24,16.10
2015,06,09,01,25,16.10
2015,06,09,01,26,16.10
2015,06,09,01,27,16.10
2015,06,09,01,28,16.10
2015,06,09,01,29,16.10
2015,06,09,01,30,16.10
2015,06,09,01,31,16.10
2015,06,09,01,32,16.10
2015,06,09,01,33,16.10
2015,06,09,01,34,16.10
2015,06,09,01,35,16.10
2015,06,09,01,36,16.10
2015,06,09,01,37,16.10
2015,06,09,01,38,16.10
2015,06,09,01,39,15.90
2015,06,09,01,40,15.90
2015,06,09,01,41,15.90
2015,06,09,01,42,15.90
2015,06,09,01,43,15.80
2015,06,09,01,44,15.80
2015,06,09,01,45,15.80
2015,06,09,01,46,15.80
2015,06,09,01,47,15.70
2015,06,09,01,48,15.70
2015,06,09,01,49,15.70
2015,06,09,01,50,15.60
2015,06,09,01,51,15.60
2015,06,09,01,52,15.60
2015,06,09,01,53,15.50
2015,06,09,01,54,15.50
2015,06,09,01,55,15.40
2015,06,09,01,56,15.40
2015,06,09,01,57,15.40
2015,06,09,01,58,15.30
2015,06,09,01,59,15.30
2015,06,09,02,00,15.20
2015,06,09,02,01,15.20
2015,06,09,02,02,15.20
2015,06,09,02,03,15.10
2015,06,09,02,04,15.10
2015,06,09,02,05,15.10
2015,06,09,02,06,15.00
2015,06,09,02,07,15.00
2015,06,09,02,08,14.90
2015,06,09,02,09,14.90
2015,06,09,02,10,14.90
2015,06,09,02,11,14.90
2015,06,09,02,12,14.80
2015,06,09,02,13,14.80
2015,06,09,02,14,14.80
2015,06,09,02,15,14.80
2015,06,09,02,16,14.80
2015,06,09,02,17,14.80
2015,06,09,02,18,14.80
2015,06,09,02,19,14.80
2015,06,09,02,20,14.80
2015,06,09,02,21,14.80
2015,06,09,02,22,14.80
2015,06,09,02,23,14.70
2015,06,09,02,24,14.70
2015,06,09,02,25,14.70
2015,06,09,02,26,14.70
2015,06,09,02,27,14.70
2015,06,09,02,28,14.70
2015,06,09,02,29,14.70
2015,06,09,02,30,14.70
2015,06,09,02,31,14.70
2015,06,09,02,32,14.70
2015,06,09,02,33,14.70
2015,06,09,02,34,14.60
2015,06,09,02,35,14.60
2015,06,09,02,36,14.60
2015,06,09,02,37,14.60
2015,06,09,02,38,14.60
2015,06,09,02,39,14.60
2015,06,09,02,40,14.60
2015,06,09,02,41,14.60
2015,06,09,02,42,14.60
2015,06,09,02,43,14.70
2015,06,09,02,44,14.70
2015,06,09,02,45,14.70
2015,06,09,02,46,14.70
2015,06,09,02,47,14.70
2015,06,09,02,48,14.70
2015,06,09,02,49,14.70
2015,06,09,02,50,14.70
2015,06,09,02,51,14.70
2015,06,09,02,52,14.70
2015,06,09,02,53,14.60
2015,06,09,02,54,14.60
2015,06,09,02,55,14.60
2015,06,09,02,56,14.60
2015,06,09,02,57,14.60
2015,06,09,02,58,14.50
2015,06,09,02,59,14.50
2015,06,09,03,00,14.50
2015,06,09,03,01,14.50
2015,06,09,03,02,14.40
2015,06,09,03,03,14.40
2015,06,09,03,04,14.40
2015,06,09,03,05,14.30
2015,06,09,03,06,14.30
2015,06,09,03,07,14.30
2015,06,09,03,08,14.30
2015,06,09,03,09,14.30
2015,06,09,03,10,14.30
2015,06,09,03,11,14.20
2015,06,09,03,12,14.20
2015,06,09,03,13,14.20
2015,06,09,03,14,14.20
2015,06,09,03,15,14.20
2015,06,09,03,16,14.20
2015,06,09,03,17,14.20
2015,06,09,03,18,14.20
2015,06,09,03,19,14.20
2015,06,09,03,20,14.20
2015,06,09,03,21,14.20
2015,06,09,03,22,14.20
2015,06,09,03,23,14.20
2015,06,09,03,24,14.20
2015,06,09,03,25,14.20
2015,06,09,03,26,14.20
2015,06,09,03,27,14.20
2015,06,09,03,28,14.20
2015,06,09,03,29,14.20
2015,06,09,03,30,14.20
2015,06,09,03,31,14.20
2015,06,09,03,32,14.30
2015,06,09,03,33,14.30
2015,06,09,03,34,14.30
2015,06,09,03,35,14.30
2015,06,09,03,36,14.30
2015,06,09,03,37,14.30
2015,06,09,03,38,14.30
2015,06,09,03,39,14.30
2015,06,09,03,40,14.30
2015,06,09,03,41,14.30
2015,06,09,03,42,14.30
2015,06,09,03,43,14.30
2015,06,09,03,44,14.30
2015,06,09,03,45,14.30
2015,06,09,03,46,14.30
2015,06,09,03,47,14.30
2015,06,09,03,48,14.30
2015,06,09,03,49,14.30
2015,06,09,03,50,14.20
2015,06,09,03,51,14.20
2015,06,09,03,52,14.20
2015,06,09,03,53,14.20
2015,06,09,03,54,14.20
2015,06,09,03,55,14.20
2015,06,09,03,56,14.10
2015,06,09,03,57,14.10
2015,06,09,03,58,14.10
2015,06,09,03,59,14.00
2015,06,09,04,00,14.00
2015,06,09,04,01,14.00
2015,06,09,04,02,14.00
2015,06,09,04,03,14.00
2015,06,09,04,04,13.90
2015,06,09,04,05,13.90
2015,06,09,04,06,13.90
2015,06,09,04,07,13.90
2015,06,09,04,08,13.90
2015,06,09,04,09,13.90
2015,06,09,04,10,13.90
2015,06,09,04,11,13.90
2015,06,09,04,12,13.90
2015,06,09,04,13,13.90
2015,06,09,04,14,13.80
2015,06,09,04,15,13.80
2015,06,09,04,16,13.80
2015,06,09,04,17,13.80
2015,06,09,04,18,13.80
2015,06,09,04,19,13.80
2015,06,09,04,20,13.70
2015,06,09,04,21,13.70
2015,06,09,04,22,13.70
2015,06,09,04,23,13.70
2015,06,09,04,24,13.70
2015,06,09,04,25,13.70
2015,06,09,04,26,13.70
2015,06,09,04,27,13.60
2015,06,09,04,28,13.60
2015,06,09,04,29,13.50
2015,06,09,04,30,13.50
2015,06,09,04,31,13.50
2015,06,09,04,32,13.40
2015,06,09,04,33,13.40
2015,06,09,04,34,13.40
2015,06,09,04,35,13.30
2015,06,09,04,36,13.30
2015,06,09,04,37,13.30
2015,06,09,04,38,13.30
2015,06,09,04,39,13.30
2015,06,09,04,40,13.30
2015,06,09,04,41,13.20
2015,06,09,04,42,13.20
2015,06,09,04,43,13.20
2015,06,09,04,44,13.20
2015,06,09,04,45,13.20
2015,06,09,04,46,13.20
2015,06,09,04,47,13.10
2015,06,09,04,48,13.10
2015,06,09,04,49,13.10
2015,06,09,04,50,13.10
2015,06,09,04,51,13.10
2015,06,09,04,52,13.10
2015,06,09,04,53,13.10
2015,06,09,04,54,13.10
2015,06,09,04,55,13.10
2015,06,09,04,56,13.00
2015,06,09,04,57,13.00
2015,06,09,04,58,13.00
2015,06,09,04,59,12.90
2015,06,09,05,00,12.90
2015,06,09,05,01,12.90
2015,06,09,05,02,12.90
2015,06,09,05,03,12.90
2015,06,09,05,04,12.90
2015,06,09,05,05,12.80
2015,06,09,05,06,12.80
2015,06,09,05,07,12.90
2015,06,09,05,08,12.90
2015,06,09,05,09,12.80
2015,06,09,05,10,12.80
2015,06,09,05,11,12.80
2015,06,09,05,12,12.80
2015,06,09,05,13,12.80
2015,06,09,05,14,12.80
2015,06,09,05,15,12.80
2015,06,09,05,16,12.80
2015,06,09,05,17,12.80
2015,06,09,05,18,12.80
2015,06,09,05,19,12.80
2015,06,09,05,20,12.80
2015,06,09,05,21,12.80
2015,06,09,05,22,12.70
2015,06,09,05,23,12.70
2015,06,09,05,24,12.70
2015,06,09,05,25,12.70
2015,06,09,05,26,12.70
2015,06,09,05,27,12.70
2015,06,09,05,28,12.70
2015,06,09,05,29,12.70
2015,06,09,05,30,12.70
2015,06,09,05,31,12.70
2015,06,09,05,32,12.70
2015,06,09,05,33,12.70
2015,06,09,05,34,12.70
2015,06,09,05,35,12.70
2015,06,09,05,36,12.70
2015,06,09,05,37,12.70
2015,06,09,05,38,12.70
2015,06,09,05,39,12.70
2015,06,09,05,40,12.80
2015,06,09,05,41,12.80
2015,06,09,05,42,12.80
2015,06,09,05,43,12.80
2015,06,09,05,44,12.80
2015,06,09,05,45,12.80
2015,06,09,05,46,12.80
2015,06,09,05,47,12.80
2015,06,09,05,48,12.80
2015,06,09,05,49,12.80
2015,06,09,05,50,12.80
2015,06,09,05,51,12.80
2015,06,09,05,52,12.80
2015,06,09,05,53,12.90
2015,06,09,05,54,12.90
2015,06,09,05,55,12.90
2015,06,09,05,56,12.90
2015,06,09,05,57,12.90
2015,06,09,05,58,12.90
2015,06,09,05,59,13.00
2015,06,09,06,00,13.00
2015,06,09,06,01,13.00
2015,06,09,06,02,13.00
2015,06,09,06,03,13.00
2015,06,09,06,04,13.00
2015,06,09,06,05,13.10
2015,06,09,06,06,13.10
2015,06,09,06,07,13.10
2015,06,09,06,08,13.10
2015,06,09,06,09,13.10
2015,06,09,06,10,13.20
2015,06,09,06,11,13.20
2015,06,09,06,12,13.20
2015,06,09,06,13,13.20
2015,06,09,06,14,13.30
2015,06,09,06,15,13.30
2015,06,09,06,16,13.30
2015,06,09,06,17,13.30
2015,06,09,06,18,13.40
2015,06,09,06,19,13.40
2015,06,09,06,20,13.50
2015,06,09,06,21,13.50
2015,06,09,06,22,13.60
2015,06,09,06,23,13.60
2015,06,09,06,24,13.70
2015,06,09,06,25,13.70
2015,06,09,06,26,13.70
2015,06,09,06,27,13.70
2015,06,09,06,28,13.70
2015,06,09,06,29,13.80
2015,06,09,06,30,13.80
2015,06,09,06,31,13.90
2015,06,09,06,32,13.90
2015,06,09,06,33,13.90
2015,06,09,06,34,14.00
2015,06,09,06,35,14.00
2015,06,09,06,36,14.10
2015,06,09,06,37,14.10
2015,06,09,06,38,14.20
2015,06,09,06,39,14.20
2015,06,09,06,40,14.20
2015,06,09,06,41,14.20
2015,06,09,06,42,14.20
2015,06,09,06,43,14.20
2015,06,09,06,44,14.30
2015,06,09,06,45,14.30
2015,06,09,06,46,14.30
2015,06,09,06,47,14.40
2015,06,09,06,48,14.40
2015,06,09,06,49,14.50
2015,06,09,06,50,14.50
2015,06,09,06,51,14.60
2015,06,09,06,52,14.60
2015,06,09,06,53,14.70
2015,06,09,06,54,14.80
2015,06,09,06,55,14.80
2015,06,09,06,56,14.80
2015,06,09,06,57,14.90
2015,06,09,06,58,15.00
2015,06,09,06,59,15.00
2015,06,09,07,00,15.10
2015,06,09,07,01,15.10
2015,06,09,07,02,15.20
2015,06,09,07,03,15.30
2015,06,09,07,04,15.30
2015,06,09,07,05,15.50
2015,06,09,07,06,15.60
2015,06,09,07,07,15.60
2015,06,09,07,08,15.70
2015,06,09,07,09,15.80
2015,06,09,07,10,15.90
2015,06,09,07,11,16.10
2015,06,09,07,12,16.20
2015,06,09,07,13,16.40
2015,06,09,07,14,16.50
2015,06,09,07,15,16.60
2015,06,09,07,16,16.70
2015,06,09,07,17,16.90
2015,06,09,07,18,16.90
2015,06,09,07,19,17.00
2015,06,09,07,20,17.10
2015,06,09,07,21,17.20
2015,06,09,07,22,17.30
2015,06,09,07,23,17.40
2015,06,09,07,24,17.50
2015,06,09,07,25,17.50
2015,06,09,07,26,17.60
2015,06,09,07,27,17.70
2015,06,09,07,28,17.80
2015,06,09,07,29,17.90
2015,06,09,07,30,17.90
2015,06,09,07,31,18.00
2015,06,09,07,32,18.10
2015,06,09,07,33,18.10
2015,06,09,07,34,18.20
2015,06,09,07,35,18.20
2015,06,09,07,36,18.20
2015,06,09,07,37,18.20
2015,06,09,07,38,18.20
2015,06,09,07,39,18.20
2015,06,09,07,40,18.20
2015,06,09,07,41,18.20
2015,06,09,07,42,18.20
2015,06,09,07,43,18.20
2015,06,09,07,44,18.20
2015,06,09,07,45,18.20
2015,06,09,07,46,18.20
2015,06,09,07,47,18.20
2015,06,09,07,48,18.20
2015,06,09,07,49,18.10
2015,06,09,07,50,18.20
2015,06,09,07,51,18.20
2015,06,09,07,52,18.20
2015,06,09,07,53,18.20
2015,06,09,07,54,18.10
2015,06,09,07,55,18.00
2015,06,09,07,56,17.90
2015,06,09,07,57,17.90
2015,06,09,07,58,17.80
2015,06,09,07,59,17.80
2015,06,09,08,00,17.80
2015,06,09,08,01,17.80
2015,06,09,08,02,17.70
2015,06,09,08,03,17.70
2015,06,09,08,04,17.60
2015,06,09,08,05,17.60
2015,06,09,08,06,17.60
2015,06,09,08,07,17.60
2015,06,09,08,08,17.60
2015,06,09,08,09,17.70
2015,06,09,08,10,17.70
2015,06,09,08,11,17.70
2015,06,09,08,12,17.80
2015,06,09,08,13,17.80
2015,06,09,08,14,17.90
2015,06,09,08,15,17.90
2015,06,09,08,16,18.00
2015,06,09,08,17,18.10
2015,06,09,08,18,18.20
2015,06,09,08,19,18.30
2015,06,09,08,20,18.40
2015,06,09,08,21,18.50
2015,06,09,08,22,18.50
2015,06,09,08,23,18.60
2015,06,09,08,24,18.70
2015,06,09,08,25,18.70
2015,06,09,08,26,18.60
2015,06,09,08,27,18.60
2015,06,09,08,28,18.50
2015,06,09,08,29,18.50
2015,06,09,08,30,18.40
2015,06,09,08,31,18.40
2015,06,09,08,32,18.40
2015,06,09,08,33,18.40
2015,06,09,08,34,18.40
2015,06,09,08,35,18.50
2015,06,09,08,36,18.60
2015,06,09,08,37,18.60
2015,06,09,08,38,18.70
2015,06,09,08,39,18.80
2015,06,09,08,40,18.80
2015,06,09,08,41,18.80
2015,06,09,08,42,18.80
2015,06,09,08,43,18.70
2015,06,09,08,44,18.70
2015,06,09,08,45,18.60
2015,06,09,08,46,18.60
2015,06,09,08,47,18.60
2015,06,09,08,48,18.60
2015,06,09,08,49,18.70
2015,06,09,08,50,18.70
2015,06,09,08,51,18.90
2015,06,09,08,52,18.90
2015,06,09,08,53,19.10
2015,06,09,08,54,19.10
2015,06,09,08,55,19.20
2015,06,09,08,56,19.30
2015,06,09,08,57,19.40
2015,06,09,08,58,19.40
2015,06,09,08,59,19.40
2015,06,09,09,00,19.40
2015,06,09,09,01,19.40
2015,06,09,09,02,19.40
2015,06,09,09,03,19.30
2015,06,09,09,04,19.20
2015,06,09,09,05,19.20
2015,06,09,09,06,19.20
2015,06,09,09,07,19.10
2015,06,09,09,08,19.10
2015,06,09,09,09,19.10
2015,06,09,09,10,19.10
2015,06,09,09,11,19.10
2015,06,09,09,12,19.10
2015,06,09,09,13,19.10
2015,06,09,09,14,19.10
2015,06,09,09,15,19.10
2015,06,09,09,16,19.10
2015,06,09,09,17,19.10
2015,06,09,09,18,19.10
2015,06,09,09,19,19.10
2015,06,09,09,20,19.10
2015,06,09,09,21,19.10
2015,06,09,09,22,19.00
2015,06,09,09,23,18.90
2015,06,09,09,24,18.70
2015,06,09,09,25,18.70
2015,06,09,09,26,18.60
2015,06,09,09,27,18.50
2015,06,09,09,28,18.60
2015,06,09,09,29,18.50
2015,06,09,09,30,18.40
2015,06,09,09,31,18.40
2015,06,09,09,32,18.40
2015,06,09,09,33,18.40
2015,06,09,09,34,18.40
2015,06,09,09,35,18.30
2015,06,09,09,36,18.40
2015,06,09,09,37,18.30
2015,06,09,09,38,18.40
2015,06,09,09,39,18.50
2015,06,09,09,40,18.60
2015,06,09,09,41,18.60
2015,06,09,09,42,18.60
2015,06,09,09,43,18.60
2015,06,09,09,44,18.50
2015,06,09,09,45,18.50
2015,06,09,09,46,18.50
2015,06,09,09,47,18.50
2015,06,09,09,48,18.60
2015,06,09,09,49,18.80
2015,06,09,09,50,18.90
2015,06,09,09,51,18.90
2015,06,09,09,52,19.00
2015,06,09,09,53,19.10
2015,06,09,09,54,19.10
2015,06,09,09,55,19.10
2015,06,09,09,56,19.10
2015,06,09,09,57,19.10
2015,06,09,09,58,19.10
2015,06,09,09,59,19.10
2015,06,09,10,00,18.90
2015,06,09,10,01,18.90
2015,06,09,10,02,18.80
2015,06,09,10,03,18.70
2015,06,09,10,04,18.60
2015,06,09,10,05,18.70
2015,06,09,10,06,18.70
2015,06,09,10,07,18.80
2015,06,09,10,08,18.90
2015,06,09,10,09,18.90
2015,06,09,10,10,18.90
2015,06,09,10,11,18.90
2015,06,09,10,12,18.90
2015,06,09,10,13,19.00
2015,06,09,10,14,19.10
2015,06,09,10,15,19.10
2015,06,09,10,16,19.10
2015,06,09,10,17,19.20
2015,06,09,10,18,19.20
2015,06,09,10,19,19.30
2015,06,09,10,20,19.30
2015,06,09,10,21,19.30
2015,06,09,10,22,19.40
2015,06,09,10,23,19.30
2015,06,09,10,24,19.30
2015,06,09,10,25,19.30
2015,06,09,10,26,19.20
2015,06,09,10,27,19.20
2015,06,09,10,28,19.20
2015,06,09,10,29,19.20
2015,06,09,10,30,19.10
2015,06,09,10,31,19.10
2015,06,09,10,32,19.10
2015,06,09,10,33,19.00
2015,06,09,10,34,18.90
2015,06,09,10,35,18.80
2015,06,09,10,36,18.80
2015,06,09,10,37,18.80
2015,06,09,10,38,18.80
2015,06,09,10,39,18.90
2015,06,09,10,40,18.90
2015,06,09,10,41,19.10
2015,06,09,10,42,19.10
2015,06,09,10,43,19.10
2015,06,09,10,44,19.10
2015,06,09,10,45,19.10
2015,06,09,10,46,19.10
2015,06,09,10,47,19.20
2015,06,09,10,48,19.30
2015,06,09,10,49,19.40
2015,06,09,10,50,19.40
2015,06,09,10,51,19.40
2015,06,09,10,52,19.30
2015,06,09,10,53,19.10
2015,06,09,10,54,19.00
2015,06,09,10,55,18.90
2015,06,09,10,56,18.90
2015,06,09,10,57,18.90
2015,06,09,10,58,18.80
2015,06,09,10,59,18.70
2015,06,09,11,00,18.60
2015,06,09,11,01,18.50
2015,06,09,11,02,18.50
2015,06,09,11,03,18.40
2015,06,09,11,04,18.50
2015,06,09,11,05,18.60
2015,06,09,11,06,18.70
2015,06,09,11,07,18.90
2015,06,09,11,08,18.90
2015,06,09,11,09,18.90
2015,06,09,11,10,18.90
2015,06,09,11,11,18.90
2015,06,09,11,12,18.70
2015,06,09,11,13,18.70
2015,06,09,11,14,18.70
2015,06,09,11,15,18.80
2015,06,09,11,16,18.90
2015,06,09,11,17,19.00
2015,06,09,11,18,19.10
2015,06,09,11,19,19.10
2015,06,09,11,20,19.10
2015,06,09,11,21,19.10
2015,06,09,11,22,19.10
2015,06,09,11,23,19.00
2015,06,09,11,24,18.90
2015,06,09,11,25,19.00
2015,06,09,11,26,19.10
2015,06,09,11,27,19.10
2015,06,09,11,28,19.10
2015,06,09,11,29,18.90
2015,06,09,11,30,18.90
2015,06,09,11,31,19.00
2015,06,09,11,32,19.10
2015,06,09,11,33,19.30
2015,06,09,11,34,19.40
2015,06,09,11,35,19.40
2015,06,09,11,36,19.30
2015,06,09,11,37,19.20
2015,06,09,11,38,19.10
2015,06,09,11,39,19.10
2015,06,09,11,40,19.10
2015,06,09,11,41,19.10
2015,06,09,11,42,19.10
2015,06,09,11,43,19.10
2015,06,09,11,44,19.00
2015,06,09,11,45,18.80
2015,06,09,11,46,18.80
2015,06,09,11,47,18.80
2015,06,09,11,48,18.90
2015,06,09,11,49,19.00
2015,06,09,11,50,19.10
2015,06,09,11,51,19.10
2015,06,09,11,52,19.10
2015,06,09,11,53,19.20
2015,06,09,11,54,19.40
2015,06,09,11,55,19.50
2015,06,09,11,56,19.50
2015,06,09,11,57,19.50
2015,06,09,11,58,19.60
2015,06,09,11,59,19.60
2015,06,09,12,00,19.60
2015,06,09,12,01,19.60
2015,06,09,12,02,19.60
2015,06,09,12,03,19.80
2015,06,09,12,04,19.80
2015,06,09,12,05,19.90
2015,06,09,12,06,19.90
2015,06,09,12,07,19.90
2015,06,09,12,08,19.90
2015,06,09,12,09,19.80
2015,06,09,12,10,19.60
2015,06,09,12,11,19.50
2015,06,09,12,12,19.50
2015,06,09,12,13,19.50
2015,06,09,12,14,19.50
2015,06,09,12,15,19.40
2015,06,09,12,16,19.30
2015,06,09,12,17,19.20
2015,06,09,12,18,19.10
2015,06,09,12,19,19.10
2015,06,09,12,20,19.10
2015,06,09,12,21,18.90
2015,06,09,12,22,18.80
2015,06,09,12,23,18.70
2015,06,09,12,24,18.60
2015,06,09,12,25,18.60
2015,06,09,12,26,18.60
2015,06,09,12,27,18.70
2015,06,09,12,28,18.70
2015,06,09,12,29,18.70
2015,06,09,12,30,18.70
2015,06,09,12,31,18.70
2015,06,09,12,32,18.80
2015,06,09,12,33,18.90
2015,06,09,12,34,19.00
2015,06,09,12,35,19.00
2015,06,09,12,36,18.90
2015,06,09,12,37,18.90
2015,06,09,12,38,18.90
2015,06,09,12,39,18.90
2015,06,09,12,40,18.90
2015,06,09,12,41,19.10
2015,06,09,12,42,19.10
2015,06,09,12,43,19.10
2015,06,09,12,44,19.10
2015,06,09,12,45,19.10
2015,06,09,12,46,19.20
2015,06,09,12,47,19.20
2015,06,09,12,48,19.20
2015,06,09,12,49,19.10
2015,06,09,12,50,19.10
2015,06,09,12,51,19.10
2015,06,09,12,52,18.90
2015,06,09,12,53,18.90
2015,06,09,12,54,18.90
2015,06,09,12,55,19.00
2015,06,09,12,56,19.10
2015,06,09,12,57,19.10
2015,06,09,12,58,19.10
2015,06,09,12,59,19.10
2015,06,09,13,00,19.10
2015,06,09,13,01,19.10
2015,06,09,13,02,19.10
2015,06,09,13,03,19.10
2015,06,09,13,04,19.10
2015,06,09,13,05,19.30
2015,06,09,13,06,19.40
2015,06,09,13,07,19.40
2015,06,09,13,08,19.40
2015,06,09,13,09,19.40
2015,06,09,13,10,19.40
2015,06,09,13,11,19.40
2015,06,09,13,12,19.40
2015,06,09,13,13,19.50
2015,06,09,13,14,19.50
2015,06,09,13,15,19.60
2015,06,09,13,16,19.70
2015,06,09,13,17,19.80
2015,06,09,13,18,19.80
2015,06,09,13,19,19.80
2015,06,09,13,20,19.80
2015,06,09,13,21,19.90
2015,06,09,13,22,20.00
2015,06,09,13,23,20.00
2015,06,09,13,24,19.90
2015,06,09,13,25,19.90
2015,06,09,13,26,19.80
2015,06,09,13,27,19.60
2015,06,09,13,28,19.40
2015,06,09,13,29,19.30
2015,06,09,13,30,19.10
2015,06,09,13,31,19.10
2015,06,09,13,32,19.20
2015,06,09,13,33,19.20
2015,06,09,13,34,19.30
2015,06,09,13,35,19.40
2015,06,09,13,36,19.40
2015,06,09,13,37,19.40
2015,06,09,13,38,19.50
2015,06,09,13,39,19.50
2015,06,09,13,40,19.50
2015,06,09,13,41,19.40
2015,06,09,13,42,19.40
2015,06,09,13,43,19.40
2015,06,09,13,44,19.40
2015,06,09,13,45,19.40
2015,06,09,13,46,19.40
2015,06,09,13,47,19.50
2015,06,09,13,48,19.60
2015,06,09,13,49,19.60
2015,06,09,13,50,19.80
2015,06,09,13,51,19.90
2015,06,09,13,52,19.90
2015,06,09,13,53,19.90
2015,06,09,13,54,19.80
2015,06,09,13,55,19.70
2015,06,09,13,56,19.70
2015,06,09,13,57,19.70
2015,06,09,13,58,19.80
2015,06,09,13,59,19.90
2015,06,09,14,00,20.10
2015,06,09,14,01,20.20
2015,06,09,14,02,20.50
2015,06,09,14,03,20.60
2015,06,09,14,04,20.70
2015,06,09,14,05,20.80
2015,06,09,14,06,20.90
2015,06,09,14,07,20.90
2015,06,09,14,08,20.80
2015,06,09,14,09,20.70
2015,06,09,14,10,20.70
2015,06,09,14,11,20.60
2015,06,09,14,12,20.40
2015,06,09,14,13,20.30
2015,06,09,14,14,20.20
2015,06,09,14,15,20.10
2015,06,09,14,16,20.10
2015,06,09,14,17,20.10
2015,06,09,14,18,20.20
2015,06,09,14,19,20.20
2015,06,09,14,20,20.20
2015,06,09,14,21,20.20
2015,06,09,14,22,20.10
2015,06,09,14,23,20.10
2015,06,09,14,24,20.10
2015,06,09,14,25,20.10
2015,06,09,14,26,20.20
2015,06,09,14,27,20.30
2015,06,09,14,28,20.40
2015,06,09,14,29,20.30
2015,06,09,14,30,20.20
2015,06,09,14,31,20.10
2015,06,09,14,32,20.10
2015,06,09,14,33,20.10
2015,06,09,14,34,20.10
2015,06,09,14,35,20.20
2015,06,09,14,36,20.40
2015,06,09,14,37,20.40
2015,06,09,14,38,20.50
2015,06,09,14,39,20.40
2015,06,09,14,40,20.50
2015,06,09,14,41,20.40
2015,06,09,14,42,20.40
2015,06,09,14,43,20.40
2015,06,09,14,44,20.30
2015,06,09,14,45,20.30
2015,06,09,14,46,20.30
2015,06,09,14,47,20.40
2015,06,09,14,48,20.40
2015,06,09,14,49,20.40
2015,06,09,14,50,20.50
2015,06,09,14,51,20.60
2015,06,09,14,52,20.70
2015,06,09,14,53,20.70
2015,06,09,14,54,20.70
2015,06,09,14,55,20.70
2015,06,09,14,56,20.60
2015,06,09,14,57,20.70
2015,06,09,14,58,20.80
2015,06,09,14,59,20.80
2015,06,09,15,00,20.90
2015,06,09,15,01,21.00
2015,06,09,15,02,20.90
2015,06,09,15,03,20.90
2015,06,09,15,04,20.90
2015,06,09,15,05,20.90
2015,06,09,15,06,20.90
2015,06,09,15,07,21.00
2015,06,09,15,08,21.10
2015,06,09,15,09,21.20
2015,06,09,15,10,21.30
2015,06,09,15,11,21.30
2015,06,09,15,12,21.30
2015,06,09,15,13,21.30
2015,06,09,15,14,21.30
2015,06,09,15,15,21.40
2015,06,09,15,16,21.50
2015,06,09,15,17,21.60
2015,06,09,15,18,21.50
2015,06,09,15,19,21.40
2015,06,09,15,20,21.30
2015,06,09,15,21,21.20
2015,06,09,15,22,21.30
2015,06,09,15,23,21.30
2015,06,09,15,24,21.30
2015,06,09,15,25,21.40
2015,06,09,15,26,21.40
2015,06,09,15,27,21.50
2015,06,09,15,28,21.60
2015,06,09,15,29,21.70
2015,06,09,15,30,21.70
2015,06,09,15,31,21.70
2015,06,09,15,32,21.60
2015,06,09,15,33,21.60
2015,06,09,15,34,21.50
2015,06,09,15,35,21.30
2015,06,09,15,36,21.30
2015,06,09,15,37,21.40
2015,06,09,15,38,21.50
2015,06,09,15,39,21.40
2015,06,09,15,40,21.30
2015,06,09,15,41,21.30
2015,06,09,15,42,21.30
2015,06,09,15,43,21.30
2015,06,09,15,44,21.30
2015,06,09,15,45,21.30
2015,06,09,15,46,21.30
2015,06,09,15,47,21.40
2015,06,09,15,48,21.40
2015,06,09,15,49,21.40
2015,06,09,15,50,21.60
2015,06,09,15,51,21.70
2015,06,09,15,52,21.90
2015,06,09,15,53,22.00
2015,06,09,15,54,22.20
2015,06,09,15,55,22.30
2015,06,09,15,56,22.40
2015,06,09,15,57,22.40
2015,06,09,15,58,22.40
2015,06,09,15,59,22.30
2015,06,09,16,00,22.30
2015,06,09,16,01,22.30
2015,06,09,16,02,22.30
2015,06,09,16,03,22.30
2015,06,09,16,04,22.30
2015,06,09,16,05,22.40
2015,06,09,16,06,22.50
2015,06,09,16,07,22.60
2015,06,09,16,08,22.60
2015,06,09,16,09,22.60
2015,06,09,16,10,22.50
2015,06,09,16,11,22.40
2015,06,09,16,12,22.40
2015,06,09,16,13,22.40
2015,06,09,16,14,22.50
2015,06,09,16,15,22.50
2015,06,09,16,16,22.30
2015,06,09,16,17,22.10
2015,06,09,16,18,21.80
2015,06,09,16,19,21.60
2015,06,09,16,20,21.50
2015,06,09,16,21,21.30
2015,06,09,16,22,21.20
2015,06,09,16,23,21.10
2015,06,09,16,24,21.00
2015,06,09,16,25,21.00
2015,06,09,16,26,20.90
2015,06,09,16,27,20.80
2015,06,09,16,28,20.80
2015,06,09,16,29,20.70
2015,06,09,16,30,20.70
2015,06,09,16,31,20.70
2015,06,09,16,32,20.50
2015,06,09,16,33,20.40
2015,06,09,16,34,20.20
2015,06,09,16,35,20.10
2015,06,09,16,36,20.10
2015,06,09,16,37,20.20
2015,06,09,16,38,20.20
2015,06,09,16,39,20.30
2015,06,09,16,40,20.30
2015,06,09,16,41,20.30
2015,06,09,16,42,20.30
2015,06,09,16,43,20.30
2015,06,09,16,44,20.30
2015,06,09,16,45,20.30
2015,06,09,16,46,20.40
2015,06,09,16,47,20.50
2015,06,09,16,48,20.50
2015,06,09,16,49,20.50
2015,06,09,16,50,20.30
2015,06,09,16,51,20.20
2015,06,09,16,52,20.20
2015,06,09,16,53,20.20
2015,06,09,16,54,20.20
2015,06,09,16,55,20.10
2015,06,09,16,56,20.00
2015,06,09,16,57,19.90
2015,06,09,16,58,20.00
2015,06,09,16,59,20.10
2015,06,09,17,00,20.20
2015,06,09,17,01,20.20
2015,06,09,17,02,20.10
2015,06,09,17,03,20.00
2015,06,09,17,04,19.90
2015,06,09,17,05,19.70
2015,06,09,17,06,19.60
2015,06,09,17,07,19.50
2015,06,09,17,08,19.30
2015,06,09,17,09,19.10
2015,06,09,17,10,19.10
2015,06,09,17,11,19.10
2015,06,09,17,12,19.10
2015,06,09,17,13,19.10
2015,06,09,17,14,19.20
2015,06,09,17,15,19.20
2015,06,09,17,16,19.20
2015,06,09,17,17,19.20
2015,06,09,17,18,19.10
2015,06,09,17,19,19.10